Terug naar catalogus

OPS 4988 DEB

ActiefLEO
NORAD 12099·DEBRIS·🇺🇸 United States

Gelanceerd Mar 9, 1965 vanaf Vandenberg Space Force Base

Loading…

Volgende Passages (komende 24 uur)

TLE

VersSource: Space-Track

Epoch: Sep 14, 2026, 08:22 UTC

1 12099U 65016K   26257.34903285  .00000100  00000-0  95624-4 0  9996
2 12099  70.0760  43.3273 0016717 153.3082 226.7039 14.04958742139555

Volg OPS 4988 DEB in realtime met AllMySat

Download on the App Store